Location: Bílinka
(49.3579°N, 14.3767°E)
Time: 06:17:44
(UTC+00:00)

PSLV R/B - Pass Details

Date: 23 April 2024
Orbit: 467 x 522 km, 97.7° (Epoch: 19 May)

Event Time Altitude Azimuth Distance (km) Brightness Sun altitude
Exits shadow 18:52:07 - 167° (SSE) 2,644 6.9 -7.3°
Rises 18:52:11 0° 167° (SSE) 2,616 6.9 -7.3°
Reaches altitude 10° 18:54:15 10° 168° (SSE) 1,743 6.0 -7.6°
Maximum altitude 18:58:02 83° 257° (WSW) 534 3.8 -8.1°
Drops below altitude 10° 19:01:53 10° 345° (NNW) 1,782 7.2 -8.7°
Sets 19:04:01 0° 346° (NNW) 2,681 8.1 -9.0°
